This is the latest recevied weather packets stored in our database for station/object KE2HEH. If no packets are shown the sender has not sent any weather packets the latest 10 day(s).
| Time | Temp. | Humidity | Pressure | Rain* | Wind** | Luminosity | Snow |
|---|---|---|---|---|---|---|---|
| 1777541702 | 8.89° C | 97% | 1008.4 hPa | 0 mm | - | 0 W/m² | - |
| 1777541398 | 8.89° C | 97% | 1008.3 hPa | 0 mm | - | 0 W/m² | - |
| 1777541094 | 8.89° C | 97% | 1008.4 hPa | 0 mm | - | 0 W/m² | - |
| 1777540792 | 8.89° C | 97% | 1008.5 hPa | 0 mm | - | 0 W/m² | - |
| 1777540489 | 8.89° C | 97% | 1008.5 hPa | 0 mm | - | 0 W/m² | - |
| 1777540186 | 8.89° C | 96% | 1008.5 hPa | 0 mm | - | 0 W/m² | - |
| 1777539886 | 8.89° C | 96% | 1008.6 hPa | 1.78 mm | - | 0 W/m² | - |
| 1777539583 | 8.89° C | 96% | 1008.7 hPa | 1.78 mm | - | 0 W/m² | - |
| 1777539279 | 8.89° C | 97% | 1008.8 hPa | 0 mm | - | 0 W/m² | - |
| 1777538976 | 8.89° C | 96% | 1008.9 hPa | 0 mm | - | 0 W/m² | - |
| 1777538672 | 8.89° C | 96% | 1008.8 hPa | 1.27 mm | - | 0 W/m² | - |
| 1777538367 | 8.89° C | 96% | 1009 hPa | 0 mm | - | 0 W/m² | - |
| 1777538063 | 8.89° C | 96% | 1009 hPa | 0 mm | - | 0 W/m² | - |
| 1777537758 | 8.89° C | 96% | 1008.8 hPa | 0 mm | - | 0 W/m² | - |
| 1777537455 | 8.89° C | 96% | 1008.9 hPa | 0 mm | - | 0 W/m² | - |
| 1777537151 | 8.89° C | 96% | 1008.9 hPa | 0 mm | - | 0 W/m² | - |
| 1777536847 | 8.89° C | 96% | 1009 hPa | 1.78 mm | - | 0 W/m² | - |
| 1777536546 | 8.89° C | 96% | 1008.8 hPa | 1.78 mm | - | 0 W/m² | - |
| 1777536241 | 8.89° C | 96% | 1008.9 hPa | 0 mm | - | 0 W/m² | - |
| 1777535937 | 8.89° C | 96% | 1009 hPa | 0 mm | - | 0 W/m² | - |
| 1777535634 | 8.89° C | 96% | 1008.9 hPa | 1.27 mm | - | 0 W/m² | - |
| 1777535331 | 8.89° C | 96% | 1009.1 hPa | 1.78 mm | - | 0 W/m² | - |
| 1777535028 | 8.89° C | 96% | 1009.2 hPa | 3.05 mm | - | 0 W/m² | - |
| 1777534724 | 8.89° C | 96% | 1009 hPa | 4.83 mm | - | 0 W/m² | - |
| 1777534421 | 8.89° C | 96% | 1009 hPa | 4.83 mm | - | 0 W/m² | - |
* Rain latest hour (hover to see other rain measurements)
** Current wind speed in m/s (hover to see current wind gust speed)